When you browse on this site, cookies collect data to enhance your experience and personalize the content and advertising you see.
Visit our Privacy Policy to learn more. By continuing to use the site, you agree to this use of cookies and data.
  • In Hungary
  • List of Countries
  • For 7 days
  • Water Temperature
  • Satellite Maps
  • Weather Map
  • News
  • Weather Widgets
  • user-avatar
    Login

    Hourly Weather Dorobino

    Today, 19 February, Tuesday

    Time Temperature Precipitation Wind Pressure Humidity
    00:00 -10°C° 0 mm 2 mps 749 mmHg 90%
    01:00 -12°C° 0 mm 2 mps 749 mmHg 91%
    02:00 -12°C° 0 mm 2 mps 749 mmHg 91%
    03:00 -13°C° 0 mm 2 mps 749 mmHg 91%
    04:00 -11°C° 0 mm 1 mps 749 mmHg 91%
    05:00 -11°C° 0 mm 1 mps 750 mmHg 91%
    06:00 -11°C° 0 mm 1 mps 750 mmHg 91%
    07:00 -13°C° 0 mm 2 mps 750 mmHg 90%
    08:00 -12°C° 0 mm 2 mps 750 mmHg 90%
    09:00 -10°C° 0 mm 2 mps 750 mmHg 90%
    10:00 -9°C° 0 mm 3 mps 750 mmHg 89%
    11:00 -8°C° 0 mm 3 mps 750 mmHg 89%
    12:00 -8°C° 0 mm 4 mps 749 mmHg 89%
    13:00 -7°C° 0 mm 4 mps 749 mmHg 88%
    14:00 -7°C° 0 mm 4 mps 748 mmHg 88%
    15:00 -7°C° 0 mm 4 mps 748 mmHg 89%
    16:00 -8°C° 0 mm 4 mps 748 mmHg 90%
    17:00 -8°C° 0 mm 4 mps 747 mmHg 91%
    18:00 -8°C° 0 mm 4 mps 747 mmHg 91%
    19:00 -8°C° 0 mm 5 mps 747 mmHg 91%
    20:00 -8°C° 0 mm 5 mps 746 mmHg 91%
    21:00 -8°C° 0 mm 5 mps 746 mmHg 90%
    22:00 -8°C° 0 mm 5 mps 745 mmHg 89%
    23:00 -9°C° 0 mm 6 mps 745 mmHg 87%

    Tomorrow, 20 February, Wednesday

    Time Temperature Precipitation Wind Pressure Humidity
    00:00 -9°C° 0 mm 6 mps 744 mmHg 86%
    01:00 -9°C° 0 mm 6 mps 744 mmHg 85%
    02:00 -9°C° 0 mm 7 mps 743 mmHg 83%
    03:00 -8°C° 0 mm 7 mps 743 mmHg 83%
    04:00 -8°C° 0 mm 7 mps 742 mmHg 83%
    05:00 -8°C° 0 mm 7 mps 741 mmHg 83%
    06:00 -8°C° 0 mm 7 mps 741 mmHg 84%
    07:00 -8°C° 0 mm 7 mps 740 mmHg 86%
    08:00 -8°C° 0 mm 7 mps 740 mmHg 87%
    09:00 -7°C° 0 mm 7 mps 740 mmHg 89%
    10:00 -6°C° 0 mm 7 mps 739 mmHg 91%
    11:00 -4°C° 0 mm 7 mps 739 mmHg 93%
    12:00 -4°C° 0.1 mm 7 mps 739 mmHg 93%
    13:00 -3°C° 0.1 mm 7 mps 738 mmHg 93%
    14:00 -2°C° 0.1 mm 6 mps 738 mmHg 93%
    15:00 -2°C° 0.1 mm 6 mps 738 mmHg 93%
    16:00 -2°C° 0.1 mm 6 mps 738 mmHg 94%
    17:00 -1°C° 0.1 mm 5 mps 737 mmHg 94%
    18:00 -1°C° 0 mm 5 mps 737 mmHg 94%
    19:00 -1°C° 0 mm 5 mps 737 mmHg 94%
    20:00 -1°C° 0 mm 4 mps 737 mmHg 93%
    21:00 -1°C° 0 mm 4 mps 737 mmHg 93%
    22:00 -1°C° 0 mm 5 mps 737 mmHg 93%
    23:00 -1°C° 0 mm 5 mps 736 mmHg 93%

    Day after tomorrow, 21 February, Thursday

    Time Temperature Precipitation Wind Pressure Humidity
    00:00 -1°C° 0 mm 5 mps 736 mmHg 93%
    01:00 -3°C° 0 mm 6 mps 736 mmHg 93%
    02:00 -3°C° 0 mm 6 mps 735 mmHg 93%
    03:00 -3°C° 0.2 mm 6 mps 735 mmHg 93%
    04:00 -2°C° 0.2 mm 6 mps 734 mmHg 92%
    05:00 -2°C° 0.2 mm 6 mps 734 mmHg 91%
    06:00 -4°C° 0.2 mm 6 mps 734 mmHg 89%
    07:00 -5°C° 0.2 mm 6 mps 734 mmHg 86%
    08:00 -8°C° 0.2 mm 6 mps 734 mmHg 83%
    09:00 -6°C° 0.1 mm 6 mps 734 mmHg 85%
    10:00 -7°C° 0.1 mm 7 mps 734 mmHg 86%
    11:00 -6°C° 0.1 mm 8 mps 734 mmHg 88%
    12:00 -6°C° 0.2 mm 8 mps 734 mmHg 87%
    13:00 -6°C° 0.2 mm 8 mps 734 mmHg 87%
    14:00 -6°C° 0.2 mm 8 mps 735 mmHg 86%
    15:00 -6°C° 0.1 mm 7 mps 735 mmHg 85%
    16:00 -7°C° 0.1 mm 7 mps 735 mmHg 85%
    17:00 -6°C° 0.1 mm 6 mps 736 mmHg 84%
    18:00 -9°C° 0 mm 6 mps 736 mmHg 85%
    19:00 -10°C° 0 mm 6 mps 736 mmHg 86%
    20:00 -11°C° 0 mm 6 mps 737 mmHg 87%
    21:00 -10°C° 0 mm 6 mps 737 mmHg 87%
    22:00 -10°C° 0 mm 6 mps 737 mmHg 87%
    23:00 -9°C° 0 mm 6 mps 738 mmHg 88%

    22 February, Friday

    Time Temperature Precipitation Wind Pressure Humidity
    00:00 -9°C° 0 mm 6 mps 738 mmHg 88%
    01:00 -10°C° 0 mm 6 mps 738 mmHg 88%
    02:00 -10°C° 0 mm 6 mps 739 mmHg 88%
    03:00 -11°C° 0.1 mm 6 mps 739 mmHg 88%
    04:00 -11°C° 0.1 mm 6 mps 740 mmHg 88%
    05:00 -12°C° 0.1 mm 6 mps 740 mmHg 87%
    06:00 -14°C° 0 mm 6 mps 741 mmHg 86%
    07:00 -14°C° 0 mm 6 mps 741 mmHg 86%
    08:00 -15°C° 0 mm 6 mps 742 mmHg 85%
    09:00 -15°C° 0 mm 7 mps 742 mmHg 83%
    10:00 -15°C° 0 mm 7 mps 743 mmHg 82%
    11:00 -15°C° 0 mm 7 mps 743 mmHg 81%
    12:00 -15°C° 0.1 mm 7 mps 743 mmHg 81%
    13:00 -15°C° 0.1 mm 7 mps 744 mmHg 80%
    14:00 -15°C° 0.1 mm 7 mps 744 mmHg 80%
    15:00 -15°C° 0 mm 6 mps 744 mmHg 81%
    16:00 -15°C° 0 mm 5 mps 745 mmHg 83%
    17:00 -16°C° 0 mm 4 mps 745 mmHg 84%
    18:00 -16°C° 0 mm 4 mps 745 mmHg 85%
    19:00 -16°C° 0 mm 4 mps 746 mmHg 86%
    20:00 -17°C° 0 mm 4 mps 746 mmHg 88%
    21:00 -17°C° 0 mm 4 mps 746 mmHg 88%
    22:00 -17°C° 0 mm 4 mps 747 mmHg 89%
    23:00 -18°C° 0 mm 4 mps 747 mmHg 90%

    23 February, Saturday

    Time Temperature Precipitation Wind Pressure Humidity
    00:00 -18°C° 0 mm 4 mps 747 mmHg 91%
    01:00 -18°C° 0 mm 4 mps 748 mmHg 92%
    02:00 -19°C° 0 mm 4 mps 748 mmHg 93%
    03:00 -19°C° 0 mm 4 mps 748 mmHg 93%
    04:00 -19°C° 0 mm 4 mps 749 mmHg 93%
    05:00 -19°C° 0 mm 4 mps 749 mmHg 93%
    06:00 -18°C° 0 mm 4 mps 750 mmHg 93%
    07:00 -18°C° 0 mm 4 mps 750 mmHg 92%
    08:00 -18°C° 0 mm 4 mps 750 mmHg 92%
    09:00 -17°C° 0 mm 4 mps 751 mmHg 91%
    10:00 -17°C° 0 mm 4 mps 751 mmHg 89%
    11:00 -16°C° 0 mm 4 mps 751 mmHg 88%
    12:00 -16°C° 0 mm 4 mps 751 mmHg 87%
    13:00 -15°C° 0 mm 4 mps 752 mmHg 87%
    14:00 -15°C° 0 mm 4 mps 752 mmHg 86%
    15:00 -15°C° 0 mm 4 mps 752 mmHg 88%
    16:00 -15°C° 0 mm 3 mps 752 mmHg 90%
    17:00 -15°C° 0 mm 3 mps 752 mmHg 92%
    18:00 -14°C° 0 mm 2 mps 753 mmHg 93%
    19:00 -15°C° 0 mm 2 mps 753 mmHg 94%
    20:00 -15°C° 0 mm 2 mps 753 mmHg 94%
    21:00 -15°C° 0 mm 2 mps 754 mmHg 95%
    22:00 -15°C° 0 mm 2 mps 754 mmHg 95%
    23:00 -15°C° 0 mm 2 mps 754 mmHg 96%

    24 February, Sunday

    Time Temperature Precipitation Wind Pressure Humidity
    00:00 -15°C° 0 mm 2 mps 754 mmHg 96%
    01:00 -15°C° 0 mm 2 mps 754 mmHg 96%
    02:00 -15°C° 0 mm 2 mps 755 mmHg 96%
    03:00 -15°C° 0 mm 2 mps 755 mmHg 96%
    04:00 -16°C° 0 mm 3 mps 755 mmHg 96%
    05:00 -16°C° 0 mm 3 mps 755 mmHg 96%
    06:00 -16°C° 0 mm 3 mps 755 mmHg 96%
    07:00 -16°C° 0 mm 3 mps 756 mmHg 96%
    08:00 -16°C° 0 mm 3 mps 756 mmHg 96%
    09:00 -15°C° 0 mm 3 mps 756 mmHg 95%
    10:00 -15°C° 0 mm 3 mps 757 mmHg 94%
    11:00 -14°C° 0 mm 3 mps 757 mmHg 93%
    12:00 -14°C° 0 mm 3 mps 757 mmHg 92%
    13:00 -14°C° 0 mm 3 mps 757 mmHg 91%
    14:00 -14°C° 0 mm 3 mps 756 mmHg 91%
    15:00 -15°C° 0 mm 3 mps 756 mmHg 91%
    16:00 -16°C° 0 mm 3 mps 756 mmHg 91%
    17:00 -16°C° 0 mm 2 mps 756 mmHg 91%
    18:00 -17°C° 0 mm 2 mps 757 mmHg 89%
    19:00 -18°C° 0 mm 2 mps 757 mmHg 88%
    20:00 -16°C° 0 mm 1 mps 757 mmHg 86%
    21:00 -16°C° 0 mm 1 mps 757 mmHg 85%
    22:00 -16°C° 0 mm 1 mps 757 mmHg 84%
    23:00 -17°C° 0 mm 1 mps 757 mmHg 82%
    Show more